Theta_e
324 326 330 328 327 326 325 324 323 322 322 323 323 323 322 322 322 322 322 322 323 323 324 324 324 324 324 324 323 323 323 324 324 326 330 334 338 341 344 346 348 340 349
324 326 329 326 325 324 323 322 321 321 321 321 321 320 320 321 320 320 320 320 320 321 322 322 322 322 322 321 320 320 320 321 321 322 324 328 330 335 342 346 348 342 347
323 323 322 324 323 322 321 320 319 319 318 318 318 318 318 318 318 318 318 318 318 319 319 320 319 319 318 317 317 317 318 318 319 319 321 311 314 331 343 347 346 346 345
322 320 319 323 321 320 318 318 317 317 317 316 316 316 316 316 316 316 315 315 316 317 317 317 316 316 314 314 314 314 315 315 316 317 306 307 308 332 340 341 341 342 344
318 318 319 320 319 318 317 316 315 314 314 314 314 314 314 313 313 313 313 313 313 314 314 315 314 313 312 311 311 312 312 313 314 309 303 304 308 334 337 339 339 340 340
316 316 318 319 317 316 315 314 313 313 313 312 312 312 311 312 311 310 310 311 311 311 312 312 311 310 309 309 310 310 310 311 311 301 301 303 310 331 335 334 336 336 337
315 315 316 319 317 316 314 313 312 312 311 311 311 311 310 310 310 310 309 309 309 309 310 309 309 308 308 308 309 309 309 310 304 299 300 300 318 328 330 330 330 332 335
315 315 316 319 317 315 313 311 310 310 310 310 310 310 310 309 309 309 308 308 309 308 309 308 308 307 307 307 308 308 308 310 300 298 301 306 317 321 323 324 326 326 329
313 314 313 313 314 315 311 311 309 309 310 310 309 309 308 307 307 307 307 308 308 308 308 308 307 307 307 306 306 307 307 307 295 296 304 305 314 316 318 318 319 323 324
310 309 311 311 310 307 305 311 308 311 309 308 307 307 306 306 305 305 306 307 307 307 307 307 306 305 304 304 304 305 305 303 294 295 297 303 311 313 315 315 316 317 322
306 303 304 303 304 305 303 307 308 309 308 306 303 305 300 296 296 297 304 305 305 305 305 305 304 303 302 302 303 303 303 294 293 295 296 307 310 311 312 313 313 315 317
302 302 303 304 303 303 305 301 299 301 299 298 297 295 295 294 297 299 301 303 303 303 303 303 302 301 299 293 292 298 293 293 293 294 296 305 307 309 310 310 312 313 315
299 302 304 303 302 301 300 299 298 297 297 296 295 294 294 294 293 294 293 293 292 299 294 295 292 293 292 292 292 292 292 292 292 293 297 305 306 308 308 309 310 312 316
298 299 301 302 301 301 299 299 297 296 295 295 294 294 293 291 292 292 293 292 292 293 292 291 290 291 291 292 292 291 291 291 293 293 295 304 306 304 306 307 308 309 312
299 299 300 301 300 300 299 298 296 295 295 294 294 294 293 291 291 292 292 291 292 292 291 290 290 290 290 291 291 291 291 291 292 293 294 303 304 302 303 305 306 306 307
300 300 300 300 300 299 297 297 295 295 294 293 293 293 294 292 291 292 291 290 291 291 290 289 289 290 289 290 290 291 290 291 292 293 294 293 303 302 302 305 305 306 307
299 300 300 299 299 298 297 296 295 295 295 292 293 293 294 293 291 290 290 290 290 291 290 290 289 289 288 290 289 290 290 291 292 293 292 292 294 301 301 303 304 305 306
299 298 298 301 298 297 296 296 295 294 293 292 292 293 293 293 292 291 290 290 290 289 289 289 289 289 288 287 287 289 289 290 291 291 291 291 293 293 297 301 302 304 305
299 298 297 297 297 296 296 295 295 294 292 292 292 292 292 293 294 291 290 290 289 289 288 288 288 287 286 286 286 288 287 288 288 291 291 290 290 291 292 297 301 302 305
298 298 297 297 297 296 294 294 293 293 292 291 291 292 292 292 293 290 289 289 289 288 288 287 286 286 285 284 286 286 286 286 287 286 288 291 290 290 290 292 294 295 303
297 297 297 296 295 293 293 291 290 290 290 290 290 292 292 291 292 289 289 288 288 287 287 287 285 283 283 284 282 282 284 285 285 285 287 287 288 289 290 292 293 293 296
297 297 296 295 294 293 292 291 291 291 290 290 290 290 291 291 291 291 288 288 288 286 286 285 283 281 281 284 280 279 278 281 283 284 285 285 285 287 288 290 292 294 295
296 295 295 293 293 292 292 291 291 290 289 289 289 289 290 291 291 290 290 289 287 286 284 284 282 281 278 283 283 281 277 276 279 282 283 284 284 284 286 288 289 294 294
295 296 294 293 292 293 291 290 288 287 286 288 287 288 288 291 291 291 290 289 287 286 284 284 284 281 280 279 280 283 282 282 277 276 280 282 283 284 284 285 287 293 294
296 294 293 293 292 292 290 290 288 287 288 288 288 287 287 288 290 290 289 287 286 285 284 283 282 281 280 278 279 278 279 280 282 277 275 278 282 283 284 285 288 292 292
295 294 292 292 292 292 291 289 288 286 286 286 285 284 285 286 288 288 288 286 285 285 284 283 282 282 281 281 283 281 277 278 278 280 277 277 278 280 283 285 286 290 290
Wind_Speed
8 6 13 13 14 14 14 15 15 16 16 16 17 17 17 17 18 18 18 18 19 19 20 20 19 20 20 21 21 22 22 22 21 21 23 23 23 21 18 14 9 7 4
12 9 14 13 13 13 14 15 15 16 16 17 17 17 17 17 18 18 18 18 18 19 19 20 20 20 21 21 21 22 22 23 23 23 24 24 23 21 20 17 10 6 4
13 11 10 13 13 13 14 14 15 16 16 17 17 17 17 17 17 17 18 18 18 19 19 19 20 20 21 21 21 22 22 23 24 25 25 12 14 23 13 8 6 7 5
15 10 10 13 13 13 13 14 15 16 17 16 16 15 16 16 17 18 18 19 19 19 19 19 19 19 20 20 20 21 21 22 22 24 12 13 14 22 11 12 10 8 7
15 12 11 13 12 12 13 13 14 14 15 15 15 16 15 17 16 17 18 19 19 19 20 19 19 20 20 20 20 20 21 22 23 17 12 11 12 12 7 14 14 11 6
14 11 12 13 12 11 12 12 12 13 14 15 17 16 15 15 16 16 16 18 19 19 20 18 19 19 19 20 19 19 19 20 21 9 11 12 11 14 13 13 15 13 12
13 11 10 13 12 11 11 12 12 13 14 16 17 15 15 15 17 16 15 17 17 17 19 17 20 19 20 19 20 19 20 21 12 7 7 9 7 15 13 15 18 18 17
13 11 9 12 12 11 9 11 11 12 13 16 18 17 17 17 18 17 16 17 17 17 18 18 19 19 19 20 19 19 21 21 14 9 6 5 13 14 16 18 16 18 17
9 10 8 7 9 11 8 10 9 9 13 16 19 19 19 18 18 18 16 17 18 17 18 20 20 21 22 21 21 21 21 22 11 7 7 4 13 15 15 16 16 15 17
7 6 8 7 6 6 5 9 4 13 14 16 19 19 19 18 19 18 17 18 19 21 21 22 21 22 22 21 20 20 20 18 10 9 4 4 13 15 17 17 16 15 15
7 8 7 6 4 5 6 3 12 15 16 16 15 19 13 6 8 11 17 19 20 22 21 21 21 22 22 19 20 20 18 4 7 6 4 17 17 17 18 19 16 14 14
7 6 7 7 7 7 4 6 6 7 5 6 7 7 6 6 10 13 13 19 20 21 20 21 21 22 17 6 5 13 4 6 5 7 4 18 14 18 18 18 14 13 12
8 7 7 7 5 7 5 4 3 3 4 4 7 6 6 5 5 6 4 4 4 15 6 9 7 8 9 8 8 7 6 7 5 4 8 18 11 15 16 17 14 12 14
10 8 7 7 5 6 4 4 4 3 4 4 5 6 4 3 6 6 5 5 7 7 8 6 5 8 8 11 11 7 8 7 7 5 5 15 16 9 11 13 13 11 13
10 8 8 7 5 5 5 4 4 4 3 5 5 6 4 4 6 5 6 4 7 7 6 5 6 7 8 11 8 10 11 11 10 4 2 14 16 4 6 10 12 11 11
10 8 7 7 6 6 4 5 3 3 3 5 4 4 6 4 4 6 5 4 6 6 5 5 6 6 6 9 10 13 10 11 9 7 4 4 16 6 5 14 11 12 13
8 8 7 7 6 6 3 3 3 1 4 5 4 6 6 5 5 6 4 4 5 6 6 5 5 5 6 7 10 11 10 13 11 6 4 4 5 12 14 16 17 16 14
10 9 8 7 6 3 1 2 3 1 3 4 4 4 6 6 6 6 4 4 5 5 5 4 6 7 8 8 9 10 9 11 11 7 6 5 4 5 9 17 16 16 14
11 10 8 7 3 2 2 4 3 3 3 4 4 4 5 5 5 5 4 5 6 5 5 5 5 6 9 10 11 10 9 7 7 9 12 9 7 6 5 16 16 14 17
12 10 9 5 4 6 3 5 5 4 2 4 3 4 5 3 5 4 4 5 5 5 5 4 6 7 8 10 11 10 9 3 8 10 10 9 13 10 8 11 5 7 16
10 10 8 7 6 6 4 3 3 3 2 3 3 5 4 3 4 4 4 4 5 5 5 6 4 6 8 10 6 9 2 2 12 11 7 10 13 13 13 10 6 3 5
10 9 9 8 8 5 4 3 2 3 3 2 3 3 3 3 2 4 4 4 5 4 6 5 6 3 3 8 6 5 5 5 9 8 5 10 12 10 13 14 13 4 4
10 9 10 9 8 6 7 5 4 4 3 4 4 4 4 3 4 4 5 5 5 4 4 4 5 5 3 4 7 4 4 3 9 5 6 9 10 9 10 11 13 8 4
9 11 12 10 8 7 7 5 6 3 2 2 2 4 5 7 6 6 6 6 6 4 6 4 4 2 3 3 3 3 4 7 3 5 4 5 8 9 10 9 10 11 4
13 12 11 10 8 7 6 5 4 4 2 3 4 6 7 6 6 6 6 7 6 4 5 5 5 4 1 1 2 3 3 4 6 3 7 8 7 7 6 8 7 5 9
12 12 10 9 7 6 5 5 5 7 5 5 5 5 4 3 4 6 7 6 6 6 5 4 4 5 5 4 3 3 2 2 5 5 3 8 8 7 9 6 6 6 4
Wind_Direction
92 81 80 66 57 51 46 43 39 36 33 30 29 26 25 24 23 21 18 16 14 10 8 5 3 0 356 353 350 344 340 338 337 333 328 323 314 305 297 284 284 290 26
110 91 81 70 60 54 49 43 39 35 34 31 28 29 24 24 22 20 19 16 15 10 8 5 1 359 355 351 346 342 339 337 337 334 330 323 315 307 295 276 255 261 290
114 96 82 72 65 57 50 43 39 36 34 31 27 26 27 23 23 23 19 16 15 12 10 7 4 1 355 350 345 341 339 337 337 335 332 324 316 311 337 294 233 264 254
110 98 82 79 72 62 53 46 41 36 35 31 28 25 28 26 24 23 22 17 13 14 9 6 4 360 356 350 346 341 339 337 336 333 333 324 323 311 340 7 353 332 282
103 97 94 89 79 70 60 50 44 39 36 33 29 27 24 25 24 22 18 14 11 9 8 4 2 357 353 348 344 343 341 339 335 340 320 322 323 321 342 6 7 333 338
109 111 112 107 99 87 72 61 50 43 37 35 30 24 19 21 18 19 18 12 9 8 5 3 360 356 352 348 345 343 342 341 337 320 318 328 321 334 339 9 19 10 349
124 127 127 127 116 106 89 79 61 49 42 33 27 21 18 20 14 12 18 9 7 8 3 2 358 356 353 349 345 346 349 344 340 316 322 317 338 359 6 11 12 5 2
130 137 142 137 132 123 107 93 75 56 46 37 27 18 19 17 16 7 15 2 6 7 3 5 360 359 355 353 353 349 350 347 6 335 334 2 4 6 9 3 5 2 356
126 145 146 146 149 143 133 105 92 62 49 42 28 19 18 16 13 8 13 2 7 8 5 6 3 3 3 358 354 355 350 3 356 347 22 354 5 357 359 357 359 354 346
138 121 150 156 151 165 172 137 143 47 45 48 32 23 15 10 12 7 6 6 7 14 7 7 3 9 2 357 355 355 352 355 344 335 336 335 359 357 350 348 349 345 338
114 101 77 86 92 173 199 93 61 54 63 65 45 30 10 353 356 3 6 10 9 14 12 7 3 4 358 345 343 352 349 333 337 331 329 344 347 350 348 339 337 337 345
117 98 89 64 32 19 47 70 69 54 75 75 55 36 10 8 5 360 3 11 16 11 5 6 7 0 349 334 324 345 328 332 328 322 334 334 345 347 348 342 330 334 327
121 102 97 87 54 37 39 57 48 49 52 77 59 51 18 10 353 341 336 351 11 3 351 353 5 354 342 340 334 338 338 338 318 306 317 336 339 342 349 350 340 323 340
97 99 93 83 75 51 55 53 57 52 46 77 68 55 37 14 356 343 341 11 12 354 341 349 353 345 340 343 336 346 341 334 317 304 318 336 337 329 350 350 350 336 340
101 94 89 76 61 81 64 62 58 34 46 80 71 49 52 26 359 340 344 23 7 347 332 344 352 346 351 342 334 340 338 328 315 301 318 342 345 315 336 355 358 348 341
107 103 103 88 62 65 58 79 90 39 48 77 79 56 49 34 2 352 344 17 0 343 320 349 349 343 348 337 342 337 329 321 321 300 359 349 355 38 317 316 330 346 340
118 118 118 116 96 71 63 97 116 82 80 87 103 63 46 32 7 348 347 4 341 337 341 351 340 335 342 343 342 334 337 326 324 314 24 4 10 41 9 347 348 343 335
111 101 84 78 78 106 70 233 142 129 102 100 93 74 54 25 9 350 355 351 341 347 349 350 347 359 353 355 342 335 342 330 342 18 1 3 16 16 8 353 347 340 1
123 112 96 78 30 347 315 22 69 80 97 104 97 89 71 29 3 10 358 346 353 352 348 357 11 7 3 351 341 333 331 332 3 7 15 7 19 18 1 341 335 358 1
114 114 111 96 28 1 36 38 27 29 42 97 109 104 93 50 13 33 8 356 1 357 349 3 27 17 16 348 330 326 311 340 28 9 1 16 6 352 358 341 326 358 22
113 108 114 96 49 40 13 42 17 345 2 52 86 100 108 73 32 52 14 4 3 9 354 15 24 21 13 354 337 334 301 219 34 359 358 16 6 356 349 337 349 16 8
123 120 108 98 77 44 13 9 28 333 38 74 77 40 70 75 41 79 33 13 19 12 2 25 43 12 359 9 347 299 340 335 355 344 8 12 3 350 350 343 344 18 26
122 119 108 104 89 62 37 22 0 4 22 21 13 2 350 20 47 60 35 34 23 30 360 50 42 42 9 356 357 15 337 338 325 343 12 356 358 346 334 342 341 321 32
125 112 104 100 92 79 58 41 39 39 8 341 357 14 354 17 51 36 31 29 34 10 12 55 39 25 40 339 324 345 295 298 307 324 351 334 342 336 330 331 338 321 4
116 111 108 100 88 79 72 58 47 14 327 4 19 25 6 6 50 36 36 31 19 353 27 55 16 349 333 242 257 288 290 304 285 291 307 331 328 320 324 317 334 327 351
114 106 104 99 96 85 74 63 52 25 17 34 17 15 353 357 23 26 27 22 360 356 49 24 345 332 314 282 263 268 245 289 312 314 304 323 316 316 316 306 322 344 331